Ypsilanti, MI

10:49 AM EDT on March 27, 2017 (GMT -0400)
Willow Run

Weather History for KYIP - April, 2013

Change the Weather History Date:

Sunday, April 7, 2013

  Actual Average Record
Temperature  
Mean Temperature 52 °F -  
Max Temperature 62 °F 56 °F 82 °F (1991)
Min Temperature 41 °F 33 °F 10 °F (1982)
Degree Days  
Heating Degree Days 12    
Growing Degree Days 2 (Base 50)    
Moisture  
Dew Point 36 °F    
Average Humidity 49    
Maximum Humidity 67    
Minimum Humidity 28    
Precipitation  
Precipitation 0.00 in - - ()
Sea Level Pressure  
Sea Level Pressure 29.82 in    
Wind  
Wind Speed 18 mph (West)    
Max Wind Speed 25 mph    
Max Gust Speed 36 mph    
Visibility 10 miles    
Events Rain    
Averages and records for this station are not official NWS values.
T = Trace of Precipitation, MM = Missing Value Source: NWS Daily Summary

Daily Weather History Graph

Daily Weather History Graph

Search for Another Location

Airport or City:

Trip Planner

Search our weather history database for the weather conditions in past years. The results will help you decide how hot, cold, wet, or windy it might be!

Date:

Astronomy

Apr. 07, 2013 Rise Set
Actual Time 7:06 AM EDT 8:06 PM EDT
Civil Twilight 6:37 AM EDT 8:35 PM EDT
Nautical Twilight 6:03 AM EDT 9:09 PM EDT
Astronomical Twilight 5:27 AM EDT 9:45 PM EDT
Moon 5:25 AM EDT (4/7) 5:35 PM EDT (4/7)
Length of Visible Light 13h 58m
Length of Day
13h 00m
Waning Crescent, 8% of the Moon is Illuminated
Apr 7
Waning Crescent
Apr 10
New
Apr 18
First Quarter
Apr 25
Full
May 2
Last Quarter

Hourly Weather History & Observations

Time (EDT) Temp. Windchill Dew Point Humidity Pressure Visibility Wind Dir Wind Speed Gust Speed Precip Events Conditions
12:53 AM 54.0 °F - 24.1 °F 31% 29.76 in 10.0 mi South 13.8 mph - N/A   Partly Cloudy
1:53 AM 59.0 °F - 26.1 °F 28% 29.72 in 10.0 mi South 19.6 mph 26.5 mph N/A   Overcast
2:53 AM 62.1 °F - 33.1 °F 34% 29.68 in 10.0 mi SSW 21.9 mph 29.9 mph 0.00 in Rain Light Rain
3:53 AM 61.0 °F - 34.0 °F 36% 29.65 in 10.0 mi SSW 21.9 mph - 0.00 in   Mostly Cloudy
4:53 AM 60.1 °F - 36.0 °F 41% 29.63 in 10.0 mi SW 19.6 mph 26.5 mph N/A   Scattered Clouds
5:53 AM 59.0 °F - 41.0 °F 51% 29.63 in 10.0 mi SSW 19.6 mph 28.8 mph N/A   Clear
6:53 AM 55.9 °F - 41.0 °F 57% 29.64 in 10.0 mi SW 19.6 mph 26.5 mph N/A   Partly Cloudy
7:53 AM 59.0 °F - 42.1 °F 53% 29.67 in 10.0 mi WSW 21.9 mph 29.9 mph N/A   Overcast
8:53 AM 59.0 °F - 44.1 °F 58% 29.70 in 10.0 mi WSW 24.2 mph 32.2 mph N/A   Overcast
9:53 AM 57.0 °F - 42.1 °F 57% 29.74 in 10.0 mi WSW 23.0 mph 33.4 mph N/A   Overcast
10:53 AM 55.9 °F - 42.1 °F 60% 29.78 in 10.0 mi West 24.2 mph 34.5 mph N/A   Overcast
11:07 AM 55.4 °F - 41.0 °F 58% 29.79 in 10.0 mi West 21.9 mph - N/A   Overcast
11:19 AM 55.4 °F - 39.2 °F 54% 29.80 in 10.0 mi West 25.3 mph 34.5 mph N/A   Overcast
11:42 AM 55.4 °F - 39.2 °F 54% 29.82 in 10.0 mi West 24.2 mph 31.1 mph N/A   Overcast
11:53 AM 55.0 °F - 37.9 °F 53% 29.82 in 10.0 mi West 23.0 mph 35.7 mph N/A   Overcast
12:53 PM 55.9 °F - 37.0 °F 49% 29.84 in 10.0 mi WNW 18.4 mph 33.4 mph N/A   Overcast
1:53 PM 57.0 °F - 37.0 °F 47% 29.87 in 10.0 mi West 15.0 mph 28.8 mph N/A   Overcast
2:53 PM 57.0 °F - 36.0 °F 45% 29.89 in 10.0 mi WNW 17.3 mph 24.2 mph N/A   Mostly Cloudy
3:53 PM 57.0 °F - 35.1 °F 44% 29.92 in 10.0 mi West 15.0 mph - N/A   Partly Cloudy
4:53 PM 57.9 °F - 34.0 °F 41% 29.93 in 10.0 mi WNW 11.5 mph 21.9 mph N/A   Partly Cloudy
5:53 PM 57.9 °F - 33.1 °F 39% 29.95 in 10.0 mi WNW 13.8 mph - N/A   Clear
6:53 PM 55.0 °F - 32.0 °F 42% 29.96 in 10.0 mi NW 10.4 mph - N/A   Clear
7:53 PM 51.1 °F - 32.0 °F 48% 29.98 in 10.0 mi NW 6.9 mph - N/A   Clear
8:53 PM 46.0 °F 43.1 °F 32.0 °F 58% 30.00 in 10.0 mi North 5.8 mph - N/A   Clear
9:53 PM 44.1 °F 40.8 °F 30.9 °F 60% 30.01 in 10.0 mi North 5.8 mph - N/A   Clear
10:53 PM 43.0 °F 38.8 °F 30.9 °F 62% 30.02 in 10.0 mi North 6.9 mph - N/A   Clear
11:53 PM 41.0 °F 38.0 °F 30.9 °F 67% 30.03 in 10.0 mi ENE 4.6 mph - N/A   Clear